SCP
0 0 0 0 0 0 0 0 0 0 0 0 0 0 0 0 0 0 0 0 0 0 0 0 0 0 0 0 0 0 0 0 0 0 0 0 0 0 0 0 0 0 0 0
0 0 0 0 0 0 0 0 0 0 0 0 0 0 0 0 0 0 0 0 0 0 0 0 0 0 0 0 0 0 0 0 0 0 0 0 0 0 0 0 0 0 0 0
0 0 0 0 0 0 0 0 0 0 0 0 0 0 0 0 0 0 0 0 0 0 0 0 0 0 0 0 0 0 0 0 0 0 0 0 0 0 0 0 0 0 0 0
0 0 0 0 0 0 0 0 0 0 0 0 0 0 0 0 0 0 0 0 0 0 0 0 0 0 0 0 0 0 0 0 0 0 0 0 0 0 0 0 0 0 0 0
0 0 0 0 0 0 0 0 0 0 0 0 0 0 0 0 0 0 0 0 0 0 0 0 0 0 0 0 0 0 0 0 0 0 0 0 0 0 0 0 0 0 0 0
0 0 0 0 0 0 0 0 0 0 0 0 0 0 0 0 0 0 0 0 0 0 0 0 0 0 0 0 0 0 0 0 0 0 0 0 0 0 0 0 0 0 0 0
0 0 0 0 0 0 0 0 0 0 0 0 0 0 0 0 0 0 0 0 0 0 0 0 0 0 0 0 0 0 0 0 0 0 0 0 0 0 0 0 0 0 0 0
0 0 0 0 0 0 0 0 0 0 0 0 0 0 0 0 0 0 0 0 0 0 0 0 0 0 0 0 0 0 0 0 0 0 0 0 0 0 0 0 0 0 0 0
0 0 0 0 0 0 0 0 0 0 0 0 0 0 0 0 0 0 0 0 0 0 0 0 0 0 0 0 0 0 0 0 0 0 0 0 0 0 0 0 0 0 0 0
0 0 0 0 0 0 0 0 0 0 0 0 0 0 0 0 0 0 0 0 0 0 0 0 0 0 0 0 0 0 0 0 0 0 0 0 0 0 0 0 0 0 0 0
0 0 0 0 0 0 0 0 0 0 0 0 0 0 0 0 0 0 0 0 0 0 0 0 0 0 0 0 0 0 0 0 0 0 0 0 0 0 0 0 0 0 0 0
0 0 0 0 0 0 0 0 0 0 0 0 0 0 0 0 0 0 0 0 0 0 0 0 0 0 0 0 0 0 0 0 0 0 0 0 0 0 0 0 0 0 0 0
0 0 0 0 0 0 0 0 0 0 0 0 0 0 0 0 0 0 0 0 0 0 0 0 0 0 0 0 0 0 0 0 0 0 0 0 0 0 0 0 0 0 0 0
0 0 0 0 0 0 0 0 0 0 0 0 0 0 0 0 0 0 0 0 0 0 0 0 0 0 0 0 0 0 0 0 0 0 0 0 0 0 0 0 0 0 0 0
0 0 0 0 0 0 0 0 0 0 0 0 0 0 0 0 0 0 0 0 0 0 0 0 0 0 0 0 0 0 0 0 0 0 0 0 0 0 0 0 0 0 0 0
0 0 0 0 0 0 0 0 0 0 0 0 0 0 0 0 0 0 0 0 0 0 0 0 0 0 0 0 0 0 0 0 0 0 0 0 0 0 0 0 0 0 0 0
0 0 0 0 0 0 0 0 0 0 0 0 0 0 0 0 0 0 0 0 0 0 0 0 0 0 0 0 0 0 0 0 0 0 0 0 0 0 0 0 0 0 0 0
0 0 0 0 0 0 0 0 0 0 0 0 0 0 0 0 0 0 0 0 0 0 0 0 0 0 0 0 0 0 0 0 0 0 0 0 0 0 0 0 0 0 0 0
0 0 0 0 0 0 0 0 0 0 0 0 0 0 0 0 0 0 0 0 0 0 0 0 0 0 0 0 0 0 0 0 0 0 0 0 0 0 0 0 0 0 0 0
0 0 0 0 0 0 0 0 0 0 0 0 0 0 0 0 0 0 0 0 0 0 0 0 0 0 0 0 0 0 0 0 0 0 0 0 0 0 0 0 0 0 0 0
0 0 0 0 0 0 0 0 0 0 0 0 0 0 0 0 0 0 0 0 0 0 0 0 0 0 0 0 0 0 0 0 0 0 0 0 0 0 0 0 0 0 0 0
0 0 0 0 0 0 0 0 0 0 0 0 0 0 0 0 0 0 0 0 0 0 0 0 0 0 0 0 0 0 0 0 0 0 0 0 0 0 0 0 0 0 0 0
0 0 0 0 0 0 0 0 0 0 0 0 0 0 0 0 0 0 0 0 0 0 0 0 0 0 0 0 0 0 0 0 0 0 0 0 0 0 0 0 0 0 0 0
0 0 0 0 0 0 0 0 0 0 0 0 0 0 0 0 0 0 0 0 0 0 0 0 0 0 0 0 0 0 0 0 0 0 0 0 0 0 0 0 0 0 0 0
0 0 0 0 0 0 0 0 0 0 0 0 0 0 0 -0 -0 -0 -0 -0 0 0 0 0 0 0 0 0 0 0 0 0 0 0 0 0 0 0 0 0 0 0 0 0
0 0 0 0 0 0 0 0 0 0 0 0 0 0 0 -0 -0 -0 -0 -0 0 0 0 0 0 0 0 0 0 0 0 0 0 0 0 0 0 0 0 0 0 0 0 0
0 0 0 0 0 0 0 0 0 0 0 0 0 0 0 -0 -0 -0 -0 0 0 0 0 0 0 0 0 0 0 0 0 0 0 0 0 0 0 0 0 0 0 0 0 0
Wind_Speed
2 3 3 3 4 5 4 7 7 6 5 6 4 3 2 3 4 5 6 6 7 7 6 6 5 5 5 5 6 6 7 6 6 6 6 6 5 5 6 6 6 6 5 5
2 1 2 2 2 3 3 3 3 2 4 3 2 1 1 2 4 5 5 6 6 6 6 6 6 6 6 5 6 6 7 7 6 6 6 6 6 6 6 6 6 6 6 5
1 2 3 0 2 4 3 1 4 5 4 1 2 2 1 2 3 4 4 4 5 5 5 5 6 7 7 6 6 7 6 6 6 7 7 6 7 7 7 6 7 7 6 6
2 2 3 6 2 4 5 1 1 1 1 1 1 0 1 1 2 2 2 3 4 4 5 5 5 5 5 6 6 6 6 6 6 7 7 7 7 7 7 6 7 7 7 7
4 3 2 3 1 3 4 1 1 1 1 1 2 2 3 3 2 1 1 2 3 3 4 5 6 7 7 6 6 6 6 6 6 7 8 8 8 7 7 8 8 7 7 8
5 4 7 6 2 1 4 1 2 2 3 2 2 2 2 2 3 2 2 2 3 4 4 5 4 6 7 7 7 7 7 7 7 7 8 9 9 8 7 8 9 9 9 8
4 3 5 3 4 1 5 6 2 3 3 3 2 3 1 2 2 2 3 4 4 4 4 3 4 6 7 6 6 6 7 7 8 8 8 9 9 9 10 10 11 11 11 9
4 4 6 3 1 3 4 2 2 2 2 2 2 2 2 2 3 4 4 5 5 4 4 4 4 6 7 5 5 7 8 9 9 9 8 9 11 10 10 11 12 11 10 9
5 5 3 2 2 2 1 1 1 2 2 4 3 2 2 2 3 4 5 5 4 5 5 5 5 6 8 6 7 9 10 10 10 10 10 9 10 11 9 8 8 8 8 8
1 3 2 2 1 2 1 1 1 2 3 3 3 3 3 3 3 4 5 5 4 6 7 6 6 7 9 8 8 10 11 11 10 11 11 10 8 7 7 7 8 8 8 8
1 3 2 2 1 2 2 2 2 2 3 4 5 4 3 3 3 4 5 5 5 6 8 8 8 8 9 9 10 12 12 11 11 11 11 11 10 9 8 7 6 8 7 7
5 5 3 3 1 1 1 1 2 3 3 3 4 5 5 5 4 5 6 6 7 8 9 9 9 9 9 9 11 13 12 11 9 9 9 10 11 12 17 14 16 15 12 9
3 2 2 2 0 0 1 1 2 2 3 4 5 6 7 7 6 7 7 8 8 9 9 10 11 10 9 9 11 12 12 11 9 9 9 9 9 10 10 12 16 15 13 13
2 2 1 1 0 0 1 3 4 5 5 6 7 8 9 9 8 9 8 8 9 10 10 11 11 10 9 10 12 13 12 12 11 8 8 8 8 8 8 9 8 7 9 12
2 3 3 2 2 2 3 5 6 7 7 8 8 9 10 10 10 10 9 9 10 12 11 11 12 10 8 10 12 13 11 9 9 9 8 8 8 8 8 9 9 7 6 7
1 2 3 3 3 3 4 6 7 7 8 9 9 10 10 11 11 10 9 9 10 11 10 10 11 9 8 10 11 10 10 15 12 9 8 8 8 8 8 8 7 6 6 4
4 3 4 4 4 5 5 5 7 8 10 10 11 11 12 13 12 11 10 10 10 11 10 10 10 9 9 10 10 8 8 11 14 10 8 7 7 7 7 7 6 5 4 3
4 4 4 5 6 6 6 7 8 10 10 11 11 11 12 12 12 11 10 11 12 12 9 8 9 9 9 9 9 8 7 7 7 8 7 7 7 6 6 6 6 6 4 4
4 5 4 5 6 7 8 8 9 10 11 11 12 12 11 11 11 10 10 11 11 10 7 7 11 10 9 10 10 7 8 9 8 7 7 8 7 6 6 6 5 5 5 4
6 7 7 7 8 9 10 11 12 12 11 12 13 13 12 11 10 10 10 9 5 5 6 8 9 8 8 9 11 7 8 9 8 7 6 6 6 6 5 5 5 5 4 4
8 9 10 10 11 11 11 12 13 12 11 11 12 12 12 10 9 9 9 8 5 5 7 9 7 6 7 8 9 7 7 7 7 6 6 6 6 6 5 5 5 4 4 3
8 10 11 12 12 11 10 10 11 13 12 11 12 12 11 10 9 8 7 5 5 7 6 6 6 8 9 9 6 7 7 7 6 6 6 6 6 5 5 5 4 4 3 3
9 10 11 11 12 12 11 10 10 11 11 10 10 10 9 7 6 7 6 3 4 8 6 5 8 11 11 7 6 6 6 6 5 5 5 5 5 5 5 5 4 4 3 3
10 10 10 11 12 12 11 9 9 8 9 9 8 8 8 7 5 4 4 6 8 8 5 7 10 11 9 5 5 5 5 5 5 5 5 4 4 4 4 4 4 3 3 3
10 11 11 11 10 9 9 10 10 9 9 7 7 6 5 5 5 5 5 6 9 8 5 6 9 9 6 5 5 5 4 4 5 5 5 5 4 4 4 4 4 4 3 3
9 8 8 8 7 7 7 7 7 6 7 7 5 5 5 5 6 5 5 6 7 7 5 4 4 6 4 4 5 5 4 4 4 4 4 4 5 4 4 4 5 4 4 4
9 8 7 7 7 6 6 6 7 6 6 7 6 5 5 6 6 6 6 5 5 4 4 3 3 4 4 4 4 4 4 4 4 4 4 4 4 4 4 5 4 4 4 4
Wind_Direction
212 214 168 172 173 164 153 166 170 213 225 260 275 267 247 166 153 153 157 159 163 168 168 160 158 160 169 165 161 159 154 155 158 151 141 135 134 136 135 139 145 142 138 134
28 15 133 118 134 143 131 149 168 175 248 270 307 68 91 143 156 162 171 173 169 164 163 163 165 165 166 164 158 152 151 153 146 134 132 133 134 130 126 124 121 118 120 126
209 314 69 156 224 164 151 178 164 189 231 298 356 24 138 161 166 171 168 167 171 170 171 169 166 162 165 168 153 149 150 147 145 143 141 141 137 128 128 126 117 110 110 109
131 104 196 238 276 144 124 94 58 180 255 188 163 57 50 100 162 170 167 169 173 170 169 166 155 148 148 147 148 148 146 144 142 140 139 133 128 126 124 115 112 109 105 104
124 160 239 271 217 151 136 164 295 162 141 117 117 54 12 30 49 159 187 168 166 161 159 155 154 152 142 142 145 147 149 148 148 146 141 134 129 124 120 114 106 100 98 101
128 154 211 232 286 308 111 227 259 164 165 170 105 73 285 5 26 25 43 82 113 121 124 136 148 146 142 145 147 154 155 152 143 140 137 132 127 119 109 106 104 99 90 86
143 181 246 264 306 53 162 221 209 176 175 164 169 193 214 14 24 35 59 73 87 105 111 126 134 136 140 145 152 151 139 130 125 124 123 121 118 114 112 108 103 96 89 79
141 168 237 306 40 171 213 249 154 159 154 136 133 111 84 56 47 53 59 68 82 93 92 97 117 127 126 129 124 119 120 118 117 114 114 117 115 110 110 111 107 102 96 84
182 205 241 281 228 268 240 212 188 159 156 143 132 115 88 66 49 50 59 61 74 95 91 81 88 111 114 108 114 115 112 109 108 105 102 108 113 114 109 107 107 106 102 97
216 262 263 291 319 336 344 224 226 154 143 142 137 125 106 89 68 59 60 62 73 97 100 91 86 93 103 108 111 108 104 102 101 101 96 90 88 94 103 109 112 109 106 104
240 272 314 332 337 334 22 46 70 80 99 126 129 124 120 111 91 81 75 68 72 83 93 93 94 94 98 104 107 103 98 97 95 93 95 88 79 70 77 68 100 114 111 111
212 222 200 231 246 322 40 60 88 91 86 94 117 124 117 106 94 92 88 85 85 85 88 91 93 91 89 95 103 106 102 98 96 98 97 97 96 80 62 72 75 80 91 101
208 205 199 225 276 1 140 114 104 105 122 110 97 106 109 102 96 94 91 91 93 93 94 95 93 89 89 92 96 100 104 104 102 103 105 107 106 107 99 73 65 68 79 90
188 151 199 222 213 25 117 117 107 95 93 100 104 103 104 101 98 93 90 92 95 94 93 94 94 90 92 96 97 98 99 102 104 103 104 104 104 105 108 110 99 75 67 83
212 188 185 162 117 104 116 119 113 108 104 100 103 106 107 105 101 95 92 94 95 93 92 95 95 92 93 100 101 102 102 103 102 101 100 101 102 103 104 104 105 104 97 82
148 125 140 144 142 136 133 130 124 121 118 113 109 107 106 103 100 95 90 94 98 97 95 95 93 94 97 100 101 99 101 108 107 105 104 104 106 107 107 108 110 109 107 107
161 168 164 159 153 146 141 135 130 126 122 119 118 116 111 106 101 95 91 90 92 91 92 96 97 96 96 98 100 102 104 109 110 107 107 110 112 113 115 116 116 113 108 113
187 176 168 161 152 144 136 129 125 123 122 120 118 116 114 112 110 107 105 101 94 85 81 90 97 97 95 97 99 103 105 107 109 110 111 112 114 117 118 119 122 119 111 102
143 140 140 144 142 135 130 125 121 118 118 119 116 112 109 107 107 107 104 100 100 97 89 95 101 98 99 105 106 104 108 109 106 105 108 112 111 114 118 120 121 123 123 120
120 124 122 120 118 119 118 116 114 113 114 115 112 108 105 104 106 104 98 89 84 102 112 106 100 99 101 108 109 108 112 115 116 116 116 119 121 121 121 124 126 126 127 129
123 124 122 118 113 113 116 117 117 115 114 114 114 112 109 105 104 104 103 96 76 93 101 100 98 101 103 109 107 111 114 117 121 124 126 127 127 127 128 131 133 136 140 141
115 118 117 114 112 110 110 111 114 116 114 112 111 112 111 107 101 92 85 101 114 112 105 100 102 108 112 109 106 111 114 118 120 124 127 132 134 137 140 142 142 144 147 153
105 108 110 112 113 112 108 108 113 116 118 119 118 117 113 109 110 113 105 98 111 111 108 110 118 117 113 108 111 115 119 122 126 130 134 139 142 145 147 149 151 153 158 167
99 101 104 107 110 111 111 109 107 107 108 107 110 116 117 111 92 81 109 117 113 109 108 120 122 120 116 114 117 120 124 128 130 133 135 136 138 142 148 154 159 168 176 183
99 100 104 108 108 110 112 112 107 105 104 100 98 97 100 111 119 119 113 113 113 107 107 121 126 124 120 123 127 131 135 140 144 145 146 148 152 156 162 169 176 183 192 202
96 96 97 99 104 109 112 113 111 113 113 109 98 93 96 98 104 106 106 110 113 113 112 113 123 123 122 127 131 135 136 139 141 145 155 158 163 168 176 187 194 199 205 212
91 91 91 88 86 95 104 109 114 116 118 119 113 109 111 110 107 108 109 109 110 110 111 113 119 124 128 132 136 140 142 146 151 155 162 167 174 185 195 201 207 211 214 217